Clear Lake, IA

5:39 PM CST on February 20, 2017 (GMT -0600)
Mason City Municipal

Weather History for KMCW - April, 2014

Change the Weather History Date:

Sunday, April 20, 2014

  Actual Average Record
Temperature  
Mean Temperature 62 °F 49 °F  
Max Temperature 71 °F 61 °F 85 °F (1985)
Min Temperature 53 °F 37 °F 21 °F (1928)
Degree Days  
Heating Degree Days 3 16  
Month to date heating degree days 438 413  
Since 1 July heating degree days 8178 7258  
Cooling Degree Days 0 0  
Month to date cooling degree days 0 0  
Year to date cooling degree days 0 0  
Growing Degree Days 12 (Base 50)    
Moisture  
Dew Point 54 °F    
Average Humidity 79    
Maximum Humidity 97    
Minimum Humidity 60    
Precipitation  
Precipitation 2.46 in 0.13 in 2.46 in (2014)
Month to date precipitation 4.21 2.37  
Year to date precipitation 8.44 6.42  
Snow  
Snow 0.00 in 0.10 in 1.80 in (1993)
Month to date snowfall 5.0 2.3  
Since 1 July snowfall 58.0 40.8  
Snow Depth 0.00 in    
Sea Level Pressure  
Sea Level Pressure 30.00 in    
Wind  
Wind Speed 8 mph (SSE)    
Max Wind Speed 22 mph    
Max Gust Speed 29 mph    
Visibility 6 miles    
Events Rain , Thunderstorm    
T = Trace of Precipitation, MM = Missing Value Source: NWS Daily Summary

Daily Weather History Graph

Daily Weather History Graph

Search for Another Location

Airport or City:

Trip Planner

Search our weather history database for the weather conditions in past years. The results will help you decide how hot, cold, wet, or windy it might be!

Date:

Astronomy

Apr. 20, 2014 Rise Set
Actual Time 6:23 AM CDT 8:01 PM CDT
Civil Twilight 5:53 AM CDT 8:32 PM CDT
Nautical Twilight 5:16 AM CDT 9:08 PM CDT
Astronomical Twilight 4:37 AM CDT 9:47 PM CDT
Moon 12:45 AM CDT 10:41 AM CDT
Length of Visible Light 14h 38m
Length of Day
13h 38m
Waning Gibbous, 68% of the Moon is Illuminated
Apr 20
Waning Gibbous
Apr 22
Last Quarter
Apr 29
New
May 6
First Quarter
May 14
Full

Hourly Weather History & Observations

Time (CDT) Temp. Dew Point Humidity Pressure Visibility Wind Dir Wind Speed Gust Speed Precip Events Conditions
12:53 AM 60.1 °F 46.0 °F 60% 30.02 in 10.0 mi South 9.2 mph - N/A   Overcast
1:53 AM 60.1 °F 46.9 °F 62% 30.02 in 10.0 mi South 10.4 mph - N/A   Overcast
2:53 AM 57.9 °F 46.9 °F 67% 30.01 in 10.0 mi South 9.2 mph - N/A   Overcast
3:53 AM 57.0 °F 46.9 °F 69% 30.01 in 10.0 mi South 8.1 mph - 0.00 in   Overcast
4:53 AM 57.0 °F 46.9 °F 69% 30.01 in 10.0 mi South 4.6 mph - N/A   Overcast
5:53 AM 55.9 °F 46.9 °F 72% 30.01 in 10.0 mi South 4.6 mph - N/A   Overcast
6:53 AM 55.0 °F 48.9 °F 80% 30.03 in 10.0 mi SSW 4.6 mph - 0.00 in Rain Light Rain
7:44 AM 55.9 °F 50.0 °F 80% 30.05 in 10.0 mi Calm Calm - 0.00 in Thunderstorm Overcast
7:53 AM 54.0 °F 48.9 °F 83% 30.04 in 10.0 mi Calm Calm - 0.00 in Rain Light Rain
8:25 AM 55.9 °F 51.1 °F 84% 30.06 in 10.0 mi SW 4.6 mph - 0.00 in Rain , Thunderstorm Light Rain
8:50 AM 55.4 °F 51.8 °F 88% 30.07 in 7.0 mi SSW 3.5 mph - 0.00 in Rain Light Rain
8:53 AM 55.0 °F 52.0 °F 89% 30.06 in 7.0 mi SSW 3.5 mph - 0.00 in Rain Light Rain
9:00 AM 54.0 °F 52.0 °F 93% 30.08 in 1.8 mi Calm Calm - 0.04 in Rain Rain
9:16 AM 54.0 °F 52.0 °F 93% 30.07 in 1.2 mi South 9.2 mph - 0.17 in Rain , Thunderstorm Heavy Thunderstorms and Rain
9:29 AM 54.0 °F 52.0 °F 93% 30.08 in 3.0 mi SSW 6.9 mph - 0.21 in Rain , Thunderstorm Light Thunderstorms and Rain
9:36 AM 54.0 °F 52.0 °F 93% 30.08 in 2.5 mi SSW 5.8 mph - 0.22 in Rain , Thunderstorm Light Rain
9:44 AM 53.1 °F 53.1 °F 100% 30.07 in 3.0 mi SSE 5.8 mph - 0.23 in Rain Light Rain
9:53 AM 53.1 °F 52.0 °F 96% 30.06 in 5.0 mi SE 5.8 mph - 0.23 in Rain Light Rain
10:41 AM 53.1 °F 52.0 °F 96% 30.03 in 2.5 mi SE 10.4 mph - 0.09 in Rain Heavy Rain
10:53 AM 53.1 °F 52.0 °F 96% 30.01 in 3.0 mi SE 13.8 mph - 0.12 in Rain Light Rain
11:30 AM 53.1 °F 52.0 °F 96% 30.06 in 2.5 mi South 10.4 mph - 0.09 in Rain , Thunderstorm Heavy Rain
11:34 AM 53.1 °F 52.0 °F 96% 30.06 in 1.8 mi SSE 9.2 mph - 0.11 in Rain , Thunderstorm Heavy Thunderstorms and Rain
11:40 AM 53.1 °F 52.0 °F 96% 30.06 in 3.0 mi SSE 9.2 mph - 0.11 in Rain , Thunderstorm Light Thunderstorms and Rain
11:53 AM 53.1 °F 51.1 °F 93% 30.04 in 7.0 mi SSE 8.1 mph - 0.11 in Rain , Thunderstorm Light Thunderstorms and Rain
12:10 PM 55.0 °F 53.1 °F 93% 30.05 in 7.0 mi South 9.2 mph - 0.00 in Thunderstorm Overcast
12:27 PM 57.9 °F 55.0 °F 90% 30.04 in 7.0 mi South 11.5 mph - 0.00 in   Mostly Cloudy
12:53 PM 62.6 °F 57.2 °F 82% 30.05 in 9.0 mi South 10.4 mph - N/A   Partly Cloudy
1:53 PM 66.9 °F 57.0 °F 70% 30.01 in 10.0 mi South 10.4 mph - N/A   Clear
2:53 PM 70.0 °F 55.0 °F 59% 29.98 in 10.0 mi SE 11.5 mph - N/A   Partly Cloudy
3:53 PM 70.0 °F 55.9 °F 61% 29.95 in 10.0 mi SE 10.4 mph - N/A   Mostly Cloudy
4:53 PM 68.0 °F 57.0 °F 68% 29.94 in 10.0 mi ESE 11.5 mph - N/A   Mostly Cloudy
5:53 PM 66.9 °F 57.0 °F 70% 29.93 in 10.0 mi ENE 9.2 mph - N/A   Mostly Cloudy
6:20 PM 63.0 °F 59.0 °F 87% 29.94 in 8.0 mi NE 10.4 mph - 0.01 in Rain , Thunderstorm Light Rain
6:34 PM 62.1 °F 57.9 °F 86% 29.94 in 5.0 mi North 5.8 mph - 0.06 in Rain , Thunderstorm Light Thunderstorms and Rain
6:42 PM 60.1 °F 57.9 °F 93% 29.96 in 0.8 mi ENE 5.8 mph - 0.28 in Rain , Thunderstorm Heavy Thunderstorms and Rain
6:53 PM 64.0 °F 55.9 °F 75% 29.93 in 0.8 mi SE 11.5 mph 29.9 mph 0.51 in Rain , Thunderstorm Heavy Thunderstorms and Rain
6:57 PM 62.1 °F 57.0 °F 84% 29.94 in 2.0 mi ESE 6.9 mph - 0.02 in Rain , Thunderstorm Heavy Thunderstorms and Rain
7:14 PM 62.1 °F 57.9 °F 86% 29.95 in 1.2 mi West 8.1 mph - 0.24 in Rain , Thunderstorm Heavy Thunderstorms and Rain
7:31 PM 62.1 °F 57.0 °F 84% 29.95 in 3.0 mi SSW 8.1 mph - 0.33 in Rain , Thunderstorm Thunderstorms and Rain
7:51 PM 60.8 °F 57.2 °F 88% 29.93 in 7.0 mi West 4.6 mph - 0.35 in Rain , Thunderstorm Light Rain
7:53 PM 60.1 °F 57.0 °F 90% 29.92 in 6.0 mi WSW 4.6 mph - 0.36 in Rain , Thunderstorm Light Rain
8:05 PM 60.1 °F 57.9 °F 93% 29.93 in 6.0 mi South 15.0 mph - 0.03 in Rain , Thunderstorm Heavy Thunderstorms and Rain
8:36 PM 60.1 °F 55.9 °F 86% 29.90 in 10.0 mi SE 13.8 mph - 0.13 in Rain Light Rain
8:53 PM 62.1 °F 55.9 °F 80% 29.90 in 10.0 mi SE 11.5 mph - 0.13 in   Mostly Cloudy
9:36 PM 60.1 °F 55.9 °F 86% 29.95 in 10.0 mi North 5.8 mph - N/A Thunderstorm Thunderstorm
9:53 PM 63.0 °F 57.9 °F 84% 29.93 in 10.0 mi Variable 4.6 mph - 0.00 in Rain , Thunderstorm Light Thunderstorms and Rain
10:35 PM 61.0 °F 57.9 °F 90% 29.96 in 1.8 mi SSE 5.8 mph - 0.19 in Rain , Thunderstorm Heavy Thunderstorms and Rain
10:47 PM 62.6 °F 57.2 °F 82% 29.97 in 3.0 mi ESE 10.4 mph - 0.32 in Rain , Thunderstorm Thunderstorms and Rain
10:53 PM 63.0 °F 57.9 °F 84% 29.97 in 5.0 mi SE 6.9 mph - 0.33 in Rain , Thunderstorm Light Thunderstorms and Rain
11:30 PM 60.1 °F 57.9 °F 93% 30.00 in 1.8 mi ENE 5.8 mph - 0.29 in Rain , Thunderstorm Heavy Thunderstorms and Rain
11:42 PM 60.1 °F 57.9 °F 93% 30.00 in 2.0 mi ESE 10.4 mph - 0.51 in Rain , Thunderstorm Heavy Thunderstorms and Rain
11:53 PM 60.1 °F 59.0 °F 96% 29.99 in 5.0 mi ESE 8.1 mph - 0.56 in Rain , Thunderstorm Thunderstorms and Rain